Cincinnati, OH

5:18 PM EDT on May 24, 2017 (GMT -0400)
Cincinnati Municipal-Lunken

Weather History for KLUK - February, 2013

Change the Weather History Date:

Thursday, February 14, 2013

  Actual Average Record
Temperature  
Mean Temperature 37 °F -  
Max Temperature 53 °F 43 °F 68 °F (1950)
Min Temperature 21 °F 26 °F 9 °F (1971)
Degree Days  
Heating Degree Days 28    
Moisture  
Dew Point 29 °F    
Average Humidity 87    
Maximum Humidity 100    
Minimum Humidity 47    
Precipitation  
Precipitation 0.00 in - - ()
Sea Level Pressure  
Sea Level Pressure 29.93 in    
Wind  
Wind Speed 3 mph (SW)    
Max Wind Speed 17 mph    
Max Gust Speed 25 mph    
Visibility 6 miles    
Events Fog    
Averages and records for this station are not official NWS values.
T = Trace of Precipitation, MM = Missing Value Source: NWS Daily Summary

Daily Weather History Graph

Daily Weather History Graph

Search for Another Location

Airport or City:

Trip Planner

Search our weather history database for the weather conditions in past years. The results will help you decide how hot, cold, wet, or windy it might be!

Date:

Astronomy

Feb. 14, 2013 Rise Set
Actual Time 7:30 AM EST 6:14 PM EST
Civil Twilight 7:02 AM EST 6:41 PM EST
Nautical Twilight 6:31 AM EST 7:12 PM EST
Astronomical Twilight 6:00 AM EST 7:43 PM EST
Moon 9:34 AM EST (2/14) 11:13 PM EST (2/14)
Length of Visible Light 11h 38m
Length of Day
10h 43m
Waxing Crescent, 21% of the Moon is Illuminated
Feb 14
Waxing Crescent
Feb 17
First Quarter
Feb 25
Full
Mar 4
Last Quarter
Mar 11
New

Hourly Weather History & Observations

Time (EST) Temp. Windchill Dew Point Humidity Pressure Visibility Wind Dir Wind Speed Gust Speed Precip Events Conditions
12:01 AM 23.0 °F - 23.0 °F 100% 29.92 in 0.5 mi Calm Calm - N/A Fog Light Freezing Fog
12:27 AM 24.8 °F - 24.8 °F 100% 29.93 in 2.0 mi Calm Calm - N/A   Clear
12:36 AM 21.2 °F - 21.2 °F 100% 29.93 in 0.8 mi Calm Calm - N/A   Clear
12:53 AM 26.1 °F - 26.1 °F 100% 29.95 in 2.0 mi Calm Calm - N/A   Clear
12:59 AM 23.0 °F - 23.0 °F 100% 29.93 in 0.8 mi Calm Calm - N/A   Clear
1:43 AM 23.0 °F - 21.2 °F 93% 29.94 in 2.0 mi Calm Calm - N/A   Mostly Cloudy
1:50 AM 23.0 °F - 23.0 °F 100% 29.93 in 4.0 mi Calm Calm - N/A   Scattered Clouds
1:53 AM 24.1 °F - 24.1 °F 100% 29.95 in 4.0 mi Calm Calm - N/A   Scattered Clouds
2:53 AM 27.0 °F - 26.1 °F 96% 29.96 in 5.0 mi Calm Calm - N/A   Clear
3:44 AM 24.8 °F - 24.8 °F 100% 29.93 in 1.8 mi Calm Calm - N/A   Clear
3:53 AM 25.0 °F - 25.0 °F 100% 29.95 in 1.5 mi Calm Calm - N/A   Clear
4:14 AM 26.6 °F - 26.6 °F 100% 29.93 in 0.8 mi Calm Calm - N/A   Clear
4:21 AM 26.6 °F - 26.6 °F 100% 29.93 in 2.0 mi Calm Calm - N/A   Clear
4:39 AM 24.8 °F - 24.8 °F 100% 29.92 in 1.0 mi Calm Calm - N/A   Clear
4:46 AM 24.8 °F - 24.8 °F 100% 29.92 in 0.5 mi Calm Calm - N/A Fog Light Freezing Fog
4:53 AM 26.1 °F - 26.1 °F 100% 29.94 in 0.8 mi Calm Calm - N/A   Clear
5:00 AM 26.6 °F - 26.6 °F 100% 29.93 in 1.5 mi Calm Calm - N/A   Clear
5:11 AM 24.8 °F - 24.8 °F 100% 29.93 in 0.5 mi Calm Calm - N/A Fog Light Freezing Fog
5:17 AM 24.8 °F - 24.8 °F 100% 29.94 in 1.2 mi Calm Calm - N/A   Mostly Cloudy
5:27 AM 26.6 °F - 26.6 °F 100% 29.93 in 2.5 mi Calm Calm - N/A   Mostly Cloudy
5:38 AM 26.6 °F - 26.6 °F 100% 29.93 in 3.0 mi Calm Calm - N/A   Overcast
5:53 AM 28.0 °F 22.8 °F 28.0 °F 100% 29.94 in 4.0 mi SSW 4.6 mph - N/A   Overcast
6:53 AM 30.9 °F 24.3 °F 30.9 °F 100% 29.93 in 8.0 mi South 6.9 mph - N/A   Overcast
7:16 AM 32.0 °F 26.4 °F 32.0 °F 100% 29.93 in 8.0 mi South 5.8 mph - N/A   Overcast
7:53 AM 33.1 °F 28.7 °F 33.1 °F 100% 29.95 in 7.0 mi SSE 4.6 mph - N/A   Overcast
8:53 AM 34.0 °F 27.2 °F 33.1 °F 96% 29.96 in 6.0 mi South 8.1 mph - N/A   Overcast
9:53 AM 35.1 °F 27.9 °F 33.1 °F 92% 29.95 in 8.0 mi SSW 9.2 mph - N/A   Overcast
10:53 AM 37.0 °F 30.4 °F 34.0 °F 89% 29.94 in 10.0 mi South 9.2 mph - N/A   Overcast
11:11 AM 37.4 °F 30.3 °F 33.8 °F 87% 29.92 in 10.0 mi South 10.4 mph - N/A   Overcast
11:53 AM 39.9 °F 32.9 °F 35.1 °F 83% 29.93 in 10.0 mi South 11.5 mph - N/A   Overcast
12:29 PM 44.6 °F 38.4 °F 37.4 °F 76% 29.90 in 10.0 mi South 12.7 mph - N/A   Scattered Clouds
12:53 PM 46.0 °F 39.0 °F 37.0 °F 71% 29.90 in 10.0 mi SSW 17.3 mph - N/A   Scattered Clouds
1:53 PM 48.9 °F - 37.0 °F 64% 29.87 in 10.0 mi SSW 13.8 mph - N/A   Mostly Cloudy
2:53 PM 52.0 °F - 36.0 °F 54% 29.86 in 10.0 mi SSW 12.7 mph 25.3 mph N/A   Clear
3:53 PM 53.1 °F - 35.1 °F 50% 29.86 in 10.0 mi SW 17.3 mph 24.2 mph N/A   Partly Cloudy
4:53 PM 53.1 °F - 33.1 °F 47% 29.87 in 10.0 mi WSW 15.0 mph 21.9 mph N/A   Mostly Cloudy
5:53 PM 52.0 °F - 33.1 °F 49% 29.90 in 10.0 mi West 12.7 mph 18.4 mph N/A   Scattered Clouds
6:53 PM 48.0 °F - 33.1 °F 56% 29.93 in 10.0 mi WSW 9.2 mph - N/A   Clear
7:53 PM 45.0 °F 40.1 °F 33.1 °F 63% 29.95 in 10.0 mi SW 9.2 mph - N/A   Clear
8:53 PM 45.0 °F 40.6 °F 33.1 °F 63% 29.96 in 10.0 mi SW 8.1 mph - N/A   Mostly Cloudy
9:53 PM 45.0 °F 40.1 °F 33.1 °F 63% 30.00 in 10.0 mi NW 9.2 mph - N/A   Clear
10:53 PM 43.0 °F 40.3 °F 32.0 °F 65% 30.02 in 10.0 mi NNW 4.6 mph - N/A   Mostly Cloudy
11:53 PM 39.9 °F 35.1 °F 30.0 °F 68% 30.03 in 10.0 mi NW 6.9 mph - N/A   Mostly Cloudy